Tracking 18942 objects as of 17-Jan-2018
HD Live streaming from Space Station
objects crossing your sky now

OPS 7202 (DMSP 4A F3)

Track OPS 7202 (DMSP 4A F3) now!
10-day predictions
OPS 7202 (DMSP 4A F3) is classified as:


NORAD ID: 2920
Int'l Code: 1967-080A
Perigee: 822.2 km
Apogee: 878.8 km
Inclination: 99.0 °
Period: 101.8 minutes
Semi major axis: 7221 km
RCS: 0.6463 m2 (medium)
Launch date: August 23, 1967
Source: United States (US)
Launch site: AIR FORCE WESTERN TEST RANGE (AFWTR)
aabbcc
Your satellite tracking list
Your tracking list is empty




NASA's NSSDC Master Catalog

Two Line Element Set (TLE):
1 02920U 67080A   18017.56234561 -.00000003  00000-0  21695-4 0  9994
2 02920  99.0010 230.3920 0039187 112.3116 248.2218 14.14687308598647
Source of the keplerian elements: AFSPC